GPS BIII-2

Last updated on Tue Sep 22 2026 00:03:02 GMT+0000 (Coordinated Universal Time)

1 44506U 19056A 26264.36668047 -.00000069 00000+0 00000+0 0 9994 2 44506 55.5834 327.3165 0066070 200.2631 155.7482 2.00571731 51993
UTC large
Height (km)
Speed (km/s)
/
Latitude / Longitude
Inclination (degrees)
Orbital Period (minutes)
Azimuth
Elevation
Range (km)
Doppler Factor

Next 0 passes for location: London (51.5072 / 0.1276)

No passes found over London.
GPS BIII-2